This demonstration page uses our WeatherBlox Daily Observations layout. Learn more.

Left ArrowRight Arrow

39.51506, -84.39828

Hourly Observations for June 23, 2021

Temp ( °F °C ) Dew Point ( °F °C ) Humidity (%) Winds ( mph kmh ) Pressure ( in mb ) Visibility ( mi km ) Precip ( " mm )
12:15 am 00:15 Clear 51 10.7 51 10.7 100 100 NW 3 6 30.11 1020 10 16 N/A
12:35 am 00:35 Clear 52 11 52 11 100 100 N N/A 30.12 1020 10 16 N/A
12:55 am 00:55 Clear 52 11 N/A N/A N N/A 30.12 1020 10 16 N/A
1:15 am 01:15 Clear 52 11 N/A N/A N N/A 30.12 1020 10 16 N/A
1:35 am 01:35 Clear 50 10 N/A N/A N N/A 30.13 1020 10 16 N/A
1:55 am 01:55 Clear 50 10 N/A N/A N N/A 30.14 1021 10 16 N/A
2:15 am 02:15 Clear 52 11 N/A N/A N N/A 30.14 1021 10 16 N/A
2:35 am 02:35 Clear 52 11 N/A N/A N N/A 30.14 1021 10 16 N/A
2:55 am 02:55 Clear 50 10 N/A N/A N N/A 30.14 1021 10 16 N/A
3:15 am 03:15 Clear 50 10 N/A N/A N N/A 30.13 1020 10 16 N/A
3:35 am 03:35 Clear 50 10 N/A N/A N N/A 30.13 1020 10 16 N/A
3:55 am 03:55 Clear 50 10 N/A N/A N N/A 30.14 1021 10 16 N/A
4:15 am 04:15 Clear 50 10 N/A N/A N N/A 30.14 1021 10 16 N/A
4:35 am 04:35 Clear 50 10 N/A N/A N N/A 30.14 1021 10 16 N/A
4:55 am 04:55 Clear 50 10 N/A N/A N N/A 30.15 1021 10 16 N/A
5:15 am 05:15 Clear 50 10 N/A N/A N N/A 30.16 1021 10 16 N/A
5:35 am 05:35 Clear 48 9 N/A N/A N N/A 30.16 1021 10 16 N/A
5:55 am 05:55 Clear 48 9 N/A N/A N N/A 30.17 1022 10 16 N/A
6:15 am 06:15 Sunny 48 9 N/A N/A N N/A 30.18 1022 10 16 N/A
6:35 am 06:35 Sunny 48 9 N/A N/A N N/A 30.18 1022 10 16 N/A
6:55 am 06:55 Sunny with Light Rain 50 10 N/A N/A N N/A 30.19 1022 4 6 N/A
7:15 am 07:15 Sunny 52 11 N/A N/A N N/A 30.19 1022 10 16 N/A
7:35 am 07:35 Sunny 54 12 N/A N/A N N/A 30.19 1022 10 16 N/A
7:55 am 07:55 Sunny 55 12.7 54 12.2 97 97 N N/A 30.19 1022 10 16 N/A
8:15 am 08:15 Sunny 57 14 55 12.6 91 91 N N/A 30.19 1022 10 16 N/A
8:35 am 08:35 Sunny 59 15 55 12.7 86 86 N N/A 30.19 1022 10 16 N/A
8:55 am 08:55 Sunny 63 17.1 52 10.9 67 67 S 5 7 30.19 1022 10 16 N/A
9:15 am 09:15 Sunny 65 18.1 50 10.2 60 60 S 3 6 30.19 1022 10 16 N/A
9:35 am 09:35 Sunny 66 19 51 10.3 57 57 S 6 9 30.19 1022 10 16 N/A
9:55 am 09:55 Sunny 67 19.4 51 10.3 56 56 S 6 9 30.20 1023 10 16 N/A
10:15 am 10:15 Sunny 67 19.5 51 10.4 56 56 WSW 7 11 30.19 1022 10 16 N/A
10:35 am 10:35 Sunny 68 20.2 50 9.9 52 52 SW 8 13 30.19 1022 10 16 N/A
10:55 am 10:55 Sunny 69 20.8 50 10 50 50 SW 8 13 30.19 1022 10 16 N/A
11:15 am 11:15 Sunny 71 21.4 51 10.6 50 50 SW 10 17 30.20 1023 10 16 N/A
11:35 am 11:35 Sunny 71 21.8 51 10.3 48 48 SSW 12 19 30.19 1022 10 16 N/A
11:55 am 11:55 Mostly Cloudy 71 21.7 49 9.6 46 46 SW 6 9 30.20 1023 10 16 N/A
12:15 pm 12:15 Cloudy 72 22.3 50 10.2 46 46 SSW 12 19 30.20 1023 10 16 N/A
12:35 pm 12:35 Mostly Cloudy 73 22.9 50 10.1 44 44 SSE 12 19 30.19 1022 10 16 N/A
12:55 pm 12:55 Sunny 73 22.9 48 9.1 42 42 SE 6 9 30.20 1023 10 16 N/A
1:15 pm 13:15 Sunny 73 22.9 47 8.6 40 40 SE 12 19 30.19 1022 10 16 N/A
1:35 pm 13:35 Sunny 75 23.9 50 10 41 41 SSE 6 9 30.19 1022 10 16 N/A
1:55 pm 13:55 Partly Cloudy 76 24.4 51 10.7 42 42 SE 9 15 30.17 1022 10 16 N/A
2:15 pm 14:15 Sunny 75 24 51 10.7 43 43 SE 8 13 30.18 1022 10 16 N/A
2:35 pm 14:35 Sunny 74 23.5 49 9.4 41 41 SSE 9 15 30.17 1022 10 16 N/A
2:55 pm 14:55 Sunny 75 23.7 48 9.1 40 40 S 9 15 30.17 1022 10 16 N/A
3:15 pm 15:15 Sunny 75 24 49 9.7 40 40 S 9 15 30.17 1022 10 16 N/A
3:35 pm 15:35 Sunny 74 23.5 49 9.3 41 41 SE 12 19 30.17 1022 10 16 N/A
3:55 pm 15:55 Sunny 75 24.1 50 10.2 42 42 SE 9 15 30.16 1021 10 16 N/A
4:15 pm 16:15 Sunny 76 24.5 50 10.1 40 40 SSE 12 19 30.16 1021 10 16 N/A
4:35 pm 16:35 Sunny 76 24.5 50 10.1 40 40 SE 8 13 30.16 1021 10 16 N/A
4:55 pm 16:55 Sunny 76 24.6 51 10.5 41 41 SE 9 15 30.15 1021 10 16 N/A
5:15 pm 17:15 Sunny 76 24.7 51 10.5 41 41 S 8 13 30.15 1021 10 16 N/A
5:35 pm 17:35 Sunny 76 24.6 50 10.1 40 40 S 12 19 30.15 1021 10 16 N/A
5:55 pm 17:55 Sunny 76 24.6 50 10 40 40 SE 10 17 30.14 1021 10 16 N/A
6:15 pm 18:15 Sunny 76 24.4 50 9.9 40 40 SSE 10 17 30.15 1021 10 16 N/A
6:35 pm 18:35 Sunny 76 24.3 50 10.2 41 41 SSE 9 15 30.15 1021 10 16 N/A
6:55 pm 18:55 Sunny 75 24 51 10.4 42 42 S 12 19 30.16 1021 10 16 N/A
7:15 pm 19:15 Mostly Cloudy 75 24 51 10.8 44 44 S 7 11 30.15 1021 10 16 N/A
7:35 pm 19:35 Partly Cloudy 75 23.7 50 10.2 43 43 S 9 15 30.15 1021 10 16 N/A
7:55 pm 19:55 Sunny 74 23.5 50 9.9 42 42 S 9 15 30.14 1021 10 16 N/A
8:15 pm 20:15 Sunny 73 22.6 51 10.4 46 46 SE 8 13 30.14 1021 10 16 N/A
8:35 pm 20:35 Sunny 72 22.1 51 10.7 49 49 SE 7 11 30.15 1021 10 16 N/A
8:55 pm 20:55 Sunny 72 22.1 51 10.5 48 48 SSE 7 11 30.14 1021 10 16 N/A
9:15 pm 21:15 Clear 71 21.9 51 10.7 49 49 SE 7 11 30.14 1021 10 16 N/A
9:35 pm 21:35 Clear 71 21.8 52 10.9 50 50 SE 6 9 30.14 1021 10 16 N/A
9:55 pm 21:55 Clear 70 21.2 52 11 52 52 SSE 6 9 30.14 1021 10 16 N/A
10:15 pm 22:15 Clear 70 20.9 52 10.9 53 53 SSE 6 9 30.14 1021 10 16 N/A
10:35 pm 22:35 Clear 69 20.3 52 10.9 55 55 ESE 5 7 30.15 1021 10 16 N/A
10:55 pm 22:55 Clear 65 18.6 53 11.6 64 64 E 3 6 30.16 1021 10 16 N/A
11:15 pm 23:15 Clear 60 15.8 57 14 89 89 N N/A 30.16 1021 10 16 N/A
11:35 pm 23:35 Clear 60 15.5 57 14.1 91 91 NW 3 6 30.17 1022 10 16 N/A
11:55 pm 23:55 Clear 59 15.1 57 14 93 93 N N/A 30.17 1022 10 16 N/A

Powered by AerisWeather